Location: Dana
(41.8364°N, 106.7042°W)
Time: 12:10:37
(UTC+00:00)

Tiros 1 despin weight - Pass Details

Date: 19 May 2026
Orbit: 554 x 591 km, 48.2° (Epoch: 10 June)

Event Time Altitude Azimuth Distance (km) Brightness Sun altitude
Rises 10:26:21 0° 231° (SW) 2,768 - -12.5°
Reaches altitude 10° 10:28:38 10° 228° (SW) 1,866 - -12.2°
Exits shadow 10:29:49 18° 225° (SW) 1,412 ? -12.1°
Maximum altitude 10:32:50 63° 148° (SSE) 633 ? -11.6°
Drops below altitude 10° 10:37:02 10° 67° (ENE) 1,852 ? -11.0°
Sets 10:39:17 0° 64° (ENE) 2,745 ? -10.7°
